Location: Huesca
(42.1318°N, 0.4078°W)
Time: 17:07:05
(UTC+01:00)

Explorer 7 - Pass Details

Date: 17 December 2025
Orbit: 433 x 550 km, 50.2° (Epoch: 17 January)

Event Time Altitude Azimuth Distance (km) Brightness Sun altitude
Rises 18:01:01 0° 267° (W) 2,491 11.6 -5.7°
Reaches altitude 10° 18:03:21 10° 278° (W) 1,596 10.2 -6.1°
Maximum altitude 18:06:35 31° 342° (NNW) 816 7.6 -6.6°
Drops below altitude 10° 18:09:45 10° 46° (NE) 1,557 8.5 -7.1°
Enters shadow 18:10:03 - 49° (NE) 1,668 8.7 -7.2°
